User: anonymous   Login
Location: Sunrise Point
(46.9200°N, 121.5900°W)
Time: 21:23:29
(UTC-07:00)
Language:

Cosmos 2058 - Orbit

View from above orbital plane
View from above orbital plane
View from above satellite
View from above satellite

Ground track
Ground track

The orbit data is extracted from the following two-line orbital elements,

1 20465U 90010A   14298.85005491  .00004690  00000-0  42318-3 0  2637
2 20465 082.4901 094.9601 0015303 305.4476 054.5316 14.95251103340937
Epoch (UTC): 25 October 2014 20:24:04
Eccentricity: 0.0015303
inclination: 82.4901°
perigee height: 571 km
apogee height: 592 km
right ascension of ascending node: 94.9601°
argument of perigee: 305.4476°
revolutions per day: 14.95251103
mean anomaly at epoch: 54.5316°
orbit number at epoch: 34093

The dashed part of the orbit path shows where the satellite is in the earth's shadow,  

DLR